Showing default

FLOCK 4G 27, 62641

Orbit data source: Space-Track

FLOCK 4G 27, 62641 is a payload satellite owned by Planet (US) in SSO that was launched on Tue, 14 Jan 2025 UTC via an FALCON 9 launch vehicle from the Air Force Western Test Range (AFWTR). Payload-class satellites include a variety of spacecraft equipped with specific instruments for various scientific and technological missions. These include communications satellites like Starlink; space stations such as the ISS; scientific satellites like the Hubble; Earth observation satellites from companies like Planet Labs, Umbra, and HawkEye 360; GPS; miniature CubeSats for education and research; and military/defense satellites.

Loading next visibility...
Identifier
62641, 2025-009AJ
Orbit
SSO
Last TLE update
13 hours ago
Origin
Manufacturer
Planet
Mission
Operational Commercial Imaging
Bus & Motor
CUBESAT 3U, Unknown motor
Mass
5.7 kg wet, 5.7 kg dry
Launch date (UTC)
2025-01-14 (6 months ago)
Launch vehicle
FALCON 9
Launch site
Air Force Western Test Range (AFWTR)
Object type
Payload
Rocket body
Debris
Shape & HBR
Box + 2 Pan, 0.3 m
Radar Cross Section
0.035 m², Medium (>0.1 m² and < 1m²)

Expand to show TLE details & history

TLE from 13 hours ago
0 FLOCK 4G 27
1 62641U 25009AJ  25182.70992830  .00005322  00000-0  24303-3 0  9998
2 62641  97.4245 262.7138 0004074 100.7041 259.4653 15.21004445 25488
Epoch: 2025-07-01T17:02Z
TLE epoch observation values (Epoch: 2025-07-01T17:02:17.805Z)
Latitude
-0.00005°
Longitude
87.13814°
Altitude
506.414 km
Speed
7.611 km/s
True Right ascension
17h 30m 51s
True Declination
0° 00' 00"
Sunlit
Object was in full shadow at epoch
Visualization orbit readout
Latitude
58.48716°
Longitude
75.46464°
Altitude
510.551 km
Speed
7.615 km/s
Apparent Right ascension
07h 40m 59s
Apparent Declination
47° 44' 24"
Sunlit
Object is in daylight
Visualization observer readout
Local Sidereal Time
17:37:21
Azimuth
339.78° N
Elevation
1.854°
Doppler factor
1
Orbital elements
Apogee altitude
502.577 km
Perigee altitude
496.973 km
Semi-major axis
6,877.912 km
Eccentricity
0.00041
Inclination
97.4245°
RAAN
262.7138°
Arg. of periapsis
100.7041°
True anomaly
Unknown
Mean anomaly
259.4653°
Eccentric anomaly
Unknown
Mean motion
3.80503 °/min
Orbital period
94.61 mins
BSTAR
0.00024303
Loading maneuver chart data...
Loading SW <> Apogee altitude chart data...
Loading historical data...
Loading historical data...
Loading historical data...
Loading historical data...
Loading historical data...
Loading historical data...
Loading historical data...

FLOCK 4G 27 Visibility forecast

Observer location: undefined°, undefined°

Span
Click to sort rows by Start time (UTC) header in descending order
Start Az.
Max El. time (UTC)
Max El. Az.
Max El.
End time (UTC)
End Az.
4 mins2025-07-02 17:18:42.650Z61.827° ENE2025-07-02 17:20:42.650Z99.769° ESE15.93°2025-07-02 17:22:42.650Z133.769° SE
4 mins2025-07-02 18:52:42.650Z328.267° NNW2025-07-02 18:54:42.650Z274.277° WNW24.354°2025-07-02 18:56:42.650Z235.36° WSW
5 mins2025-07-03 05:29:42.650Z175.543° S2025-07-03 05:31:42.650Z259.441° W44.176°2025-07-03 05:34:42.650Z343.884° N
|